Location: Hilderbrand
(37.5756°N, 89.8540°W)
Time: 12:23:49
(UTC+00:00)

SKYMED 2 - Pass Details

Date: 15 November 2025
Orbit: 621 x 623 km, 97.9° (Epoch: 05 December)

Event Time Altitude Azimuth Distance (km) Brightness Sun altitude
Rises 23:38:11 0° 19° (NNE) 2,907 6.7 -10.2°
Reaches altitude 10° 23:40:28 10° 25° (NNE) 1,996 5.8 -10.6°
Maximum altitude 23:44:38 45° 99° (E) 845 3.9 -11.4°
Drops below altitude 10° 23:48:47 10° 173° (S) 1,982 6.2 -12.2°
Sets 23:51:02 0° 179° (S) 2,883 7.2 -12.6°
